FW1641 Weather Reports


Display with metric or nautical units.
time (UTC)temp
F
wind
direction
speed
MPH
gust
MPH
rain 1hr
in
rain 24hr
in
rain mn
in
humidity
%
barometer
mb
20260504081506 48 259 0.0 0.0 0.00 0.00 0.00 82 1017.8
20260504070151 50 260 0.0 1.0 0.00 0.00 0.00 77 1018.4
20260504044526 55 259 0.0 1.0 0.00 0.00 0.00 65 1018.5
20260504043032 56 260 0.0 1.0 0.00 0.00 0.00 63 1018.6
20260504041522 57 259 0.0 0.0 0.00 0.00 0.00 60 1018.7
20260504040015 58 260 0.0 0.0 0.00 0.00 0.00 57 1018.8
20260504034515 58 259 0.0 0.0 0.00 0.00 0.00 56 1018.9
20260504033014 58 259 0.0 1.0 0.00 0.00 0.00 56 1018.8
20260504031514 58 260 0.0 1.0 0.00 0.00 0.00 55 1018.6
20260504030016 59 259 0.0 0.0 0.00 0.00 0.00 54 1018.7
20260504024514 60 260 0.0 1.0 0.00 0.00 0.00 53 1018.6
20260504023011 60 259 0.0 1.0 0.00 0.00 0.00 50 1018.5
20260504021514 60 260 0.0 0.0 0.00 0.00 0.00 49 1018.2
20260504020010 61 260 0.0 1.0 0.00 0.00 0.00 49 1018.1
20260504014510 62 259 0.0 1.0 0.00 0.00 0.00 47 1017.9
20260504013009 62 260 0.0 1.0 0.00 0.00 0.00 46 1017.8
20260504011517 62 259 0.0 0.0 0.00 0.00 0.00 44 1017.6
20260504010007 63 260 0.0 1.0 0.00 0.00 0.00 43 1017.5
20260504004508 64 260 0.0 0.0 0.00 0.00 0.00 42 1017.4
20260504003007 64 259 0.0 2.0 0.00 0.00 0.00 43 1017.2
20260504001506 65 260 0.0 0.0 0.00 0.00 0.00 43 1017.1
20260504000006 66 260 0.0 0.0 0.00 0.00 0.00 41 1017.0
20260503234506 67 260 0.0 1.0 0.00 0.00 0.00 40 1016.9
20260503233004 68 260 0.0 2.0 0.00 0.00 0.00 38 1016.9
20260503231504 69 259 0.0 1.0 0.00 0.00 0.00 37 1017.0
20260503230004 70 260 0.0 2.0 0.00 0.00 0.00 36 1017.0
20260503224504 71 260 0.0 2.0 0.00 0.00 0.00 33 1017.0
20260503223002 73 259 0.0 3.0 0.00 0.00 0.00 31 1017.0
20260503221501 75 257 0.0 3.0 0.00 0.00 0.00 32 1017.0
20260503220001 77 263 0.0 2.0 0.00 0.00 0.00 30 1017.1
20260503214559 76 264 0.0 3.0 0.00 0.00 0.00 31 1017.1
20260503213059 75 284 0.0 4.0 0.00 0.00 0.00 32 1017.3
20260503211557 77 269 0.0 2.0 0.00 0.00 0.00 30 1017.4
20260503210155 75 269 0.0 3.0 0.00 0.00 0.00 31 1017.5
20260503204558 75 275 0.0 2.0 0.00 0.00 0.00 34 1017.6
20260503203057 75 340 1.0 3.0 0.00 0.00 0.00 30 1017.9
20260503201552 77 154 0.0 3.0 0.00 0.00 0.00 31 1018.1
20260503200050 76 294 0.0 2.0 0.00 0.00 0.00 30 1018.4
20260503194548 76 172 0.0 3.0 0.00 0.00 0.00 33 1018.6
20260503193049 76 279 1.0 3.0 0.00 0.00 0.00 32 1018.8
20260503191546 76 240 0.0 2.0 0.00 0.00 0.00 30 1019.2
20260503190045 76 158 0.0 2.0 0.00 0.00 0.00 32 1019.4
20260503184542 75 231 1.0 4.0 0.00 0.00 0.00 29 1019.6
20260503183039 73 12 1.0 0.0 0.00 0.00 0.00 33 1019.8
20260503181536 74 240 0.0 2.0 0.00 0.00 0.00 34 1020.0
20260503180045 72 221 0.0 2.0 0.00 0.00 0.00 36 1019.9
20260503174535 71 252 0.0 4.0 0.00 0.00 0.00 36 1020.1
20260503173031 71 292 1.0 4.0 0.00 0.00 0.00 39 1020.1
20260503171530 70 267 0.0 3.0 0.00 0.00 0.00 38 1020.2